Home > Weather > St. Louis > Past weeks

Flag for U.S.A. Weather for the Past 2 Weeks in St. Louis, Missouri, U.S.A.

Now
21 °F

Light snow. Mostly cloudy.


Feels Like: 6 °F
Forecast: 17 / 23 °F
Wind: 18 mph from Northwest

Location: Lambert-St. Louis International Airport

Current Time: Feb 9, 2016 at 2:00:30 AM

Latest Report: Feb 9, 2016 at 12:57 AM


Visibility: 6 mi

Pressure: 29.92 "Hg

Humidity: 74%

Dew point: 14 °F

Location of St. LouisLocation

Historic Weather in St. Louis — Graph

°F

St. Louis Temperature Yesterday

Maximum temperature yesterday: 40 °F (at 12:51 AM)
Minimum temperature yesterday: 23 °F (at 11:51 PM)
Average temperature yesterday: 30 °F

High & Low Weather Summary for the Past Weeks

 TemperatureHumidityPressure
High67 °F (Jan 31, 11:51 AM)93% (Feb 2, 10:51 AM)30.48 "Hg (Feb 2, 10:51 AM)
Low21 °F (Feb 9, 12:57 AM)29% (Feb 6, 3:51 PM)29.44 "Hg (Feb 2, 2:51 PM)
Average42 °F59%30.00 "Hg
* Reported Jan 25 12:51 AM — Feb 9 12:57 AM, St. Louis, Weather by CustomWeather, © 2016

Note: Actual official high and low records may vary slightly from our data, if they occured in-between our weather recording intervals... More about our weather records

Advertising

St. Louis Weather History for the Previous 24 Hours

 ConditionsComfort  
Time TempWeatherWind HumidityBarometerVisibility
12:57 AM
Tue, Feb 9
21 °FLight snow. Mostly cloudy.18 mph74%29.92 "Hg6 mi
11:51 PM
Mon, Feb 8
23 °FLight snow. Mostly cloudy.18 mph63%29.95 "Hg9 mi
10:51 PM24 °FLight snow. Overcast.13 mph57%29.96 "Hg9 mi
9:51 PM24 °FLight snow. Mostly cloudy.17 mph60%29.98 "Hg9 mi
8:51 PM24 °FLight snow. Overcast.14 mph62%29.98 "Hg9 mi
6:51 PM24 °FLight snow. Mostly cloudy.16 mph71%29.99 "Hg2 mi
5:51 PM25 °FLight snow. Mostly cloudy.17 mph72%29.98 "Hg2 mi
4:51 PM25 °FLight snow. More clouds than sun.17 mph69%29.97 "Hg2 mi
3:51 PM26 °FLight snow. Overcast.16 mph63%29.95 "Hg2 mi
2:51 PM26 °FLight snow. Overcast.23 mph55%29.93 "Hg7 mi
1:51 PM28 °FLight snow. Overcast.15 mph53%29.91 "Hg10 mi
12:51 PM28 °FLight snow. Mostly cloudy.26 mph51%29.90 "Hg10 mi
11:51 AM30 °FLight snow. Mostly cloudy.23 mph51%29.90 "Hg9 mi
10:51 AM32 °FLight snow. Partly sunny.22 mph52%29.90 "Hg9 mi
9:51 AM29 °FBroken clouds.17 mph61%29.89 "Hg10 mi
9:02 AM28 °FLight snow. Mostly cloudy.16 mph74%29.85 "Hg8 mi
8:59 AM28 °FLight snow. Mostly cloudy.13 mph74%29.85 "Hg4 mi
7:51 AM31 °FLight snow. Overcast.18 mph59%29.84 "Hg9 mi
6:51 AM33 °FLight snow. Passing clouds.21 mph54%29.81 "Hg9 mi
5:51 AM35 °FMostly cloudy.23 mph48%29.80 "Hg10 mi
4:51 AM37 °FMostly cloudy.16 mph54%29.80 "Hg10 mi
3:51 AM38 °FOvercast.24 mph55%29.79 "Hg10 mi
2:51 AM39 °FOvercast.18 mph65%29.81 "Hg10 mi
Weather by CustomWeather, © 2016

See weather overviewHow to use our weather pages